When you browse on this site, cookies collect data to enhance your experience and personalize the content and advertising you see.
Visit our Privacy Policy to learn more. By continuing to use the site, you agree to this use of cookies and data.
  • în România
  • Lista ţărilor
  • Pe 7 zile
  • Temperatura apei
  • Hartă satelitară
  • Meteo pe hartă
  • Widget-uri
  • user-avatar
    Intrare

    Meteo pe oră la Thessaloniki

    Astăzi, 19 Martie, Marţi

    Timp Temperatura Precipitaţii Vânt Presiune Umiditate
    00:00 +14°C° 0 mm 2 m/s 757 mmHg 86%
    01:00 +14°C° 0 mm 2 m/s 757 mmHg 87%
    02:00 +13°C° 0 mm 1 m/s 757 mmHg 88%
    03:00 +13°C° 0 mm 1 m/s 757 mmHg 88%
    04:00 +13°C° 0 mm 1 m/s 757 mmHg 89%
    05:00 +13°C° 0 mm 1 m/s 757 mmHg 90%
    06:00 +13°C° 0 mm 1 m/s 757 mmHg 88%
    07:00 +14°C° 0 mm 1 m/s 758 mmHg 86%
    08:00 +14°C° 0 mm 1 m/s 758 mmHg 84%
    09:00 +16°C° 0 mm 1 m/s 758 mmHg 77%
    10:00 +18°C° 0 mm 1 m/s 758 mmHg 70%
    11:00 +20°C° 0 mm 1 m/s 758 mmHg 63%
    12:00 +21°C° 0 mm 1 m/s 758 mmHg 59%
    13:00 +22°C° 0 mm 1 m/s 757 mmHg 55%
    14:00 +23°C° 0 mm 1 m/s 757 mmHg 51%
    15:00 +23°C° 0 mm 1 m/s 757 mmHg 51%
    16:00 +21°C° 0 mm 2 m/s 757 mmHg 52%
    17:00 +21°C° 0 mm 2 m/s 757 mmHg 52%
    18:00 +20°C° 0.1 mm 2 m/s 757 mmHg 60%
    19:00 +18°C° 0.1 mm 2 m/s 758 mmHg 68%
    20:00 +16°C° 0.1 mm 2 m/s 758 mmHg 77%
    21:00 +16°C° 0.2 mm 1 m/s 759 mmHg 79%
    22:00 +15°C° 0.2 mm 1 m/s 759 mmHg 81%
    23:00 +15°C° 0.2 mm 1 m/s 760 mmHg 84%

    Mâine, 20 Martie, Miercuri

    Timp Temperatura Precipitaţii Vânt Presiune Umiditate
    00:00 +15°C° 0.2 mm 1 m/s 760 mmHg 84%
    01:00 +14°C° 0.2 mm 1 m/s 760 mmHg 85%
    02:00 +14°C° 0.2 mm 1 m/s 761 mmHg 85%
    03:00 +14°C° 0 mm 1 m/s 761 mmHg 85%
    04:00 +13°C° 0 mm 1 m/s 761 mmHg 85%
    05:00 +13°C° 0 mm 1 m/s 761 mmHg 85%
    06:00 +13°C° 0 mm 1 m/s 761 mmHg 82%
    07:00 +14°C° 0 mm 1 m/s 762 mmHg 80%
    08:00 +14°C° 0 mm 2 m/s 762 mmHg 78%
    09:00 +16°C° 0.2 mm 2 m/s 762 mmHg 71%
    10:00 +17°C° 0.2 mm 2 m/s 762 mmHg 64%
    11:00 +19°C° 0.2 mm 2 m/s 762 mmHg 57%
    12:00 +20°C° 0.9 mm 2 m/s 762 mmHg 55%
    13:00 +21°C° 0.9 mm 1 m/s 762 mmHg 53%
    14:00 +22°C° 0.9 mm 1 m/s 762 mmHg 52%
    15:00 +21°C° 1.2 mm 1 m/s 762 mmHg 54%
    16:00 +20°C° 1.2 mm 2 m/s 762 mmHg 57%
    17:00 +19°C° 1.2 mm 3 m/s 762 mmHg 60%
    18:00 +18°C° 0.5 mm 2 m/s 763 mmHg 65%
    19:00 +17°C° 0.5 mm 2 m/s 763 mmHg 71%
    20:00 +15°C° 0.5 mm 2 m/s 764 mmHg 77%
    21:00 +15°C° 0.8 mm 1 m/s 765 mmHg 78%
    22:00 +15°C° 0.8 mm 1 m/s 765 mmHg 80%
    23:00 +15°C° 0.8 mm 1 m/s 766 mmHg 81%

    Poimâine, 21 Martie, Joi

    Timp Temperatura Precipitaţii Vânt Presiune Umiditate
    00:00 +15°C° 0.6 mm 1 m/s 766 mmHg 81%
    01:00 +15°C° 0.6 mm 1 m/s 766 mmHg 82%
    02:00 +14°C° 0.6 mm 1 m/s 766 mmHg 83%
    03:00 +14°C° 0.2 mm 1 m/s 766 mmHg 83%
    04:00 +14°C° 0.2 mm 2 m/s 767 mmHg 84%
    05:00 +13°C° 0.2 mm 2 m/s 767 mmHg 85%
    06:00 +13°C° 0 mm 2 m/s 767 mmHg 83%
    07:00 +13°C° 0 mm 2 m/s 767 mmHg 82%
    08:00 +13°C° 0 mm 1 m/s 768 mmHg 81%
    09:00 +14°C° 0 mm 1 m/s 767 mmHg 75%
    10:00 +16°C° 0 mm 2 m/s 767 mmHg 69%
    11:00 +17°C° 0 mm 2 m/s 767 mmHg 63%
    12:00 +17°C° 0.2 mm 2 m/s 767 mmHg 60%
    13:00 +18°C° 0.2 mm 2 m/s 767 mmHg 58%
    14:00 +19°C° 0.2 mm 2 m/s 766 mmHg 55%
    15:00 +18°C° 0.3 mm 2 m/s 766 mmHg 57%
    16:00 +18°C° 0.3 mm 3 m/s 766 mmHg 60%
    17:00 +18°C° 0.3 mm 3 m/s 766 mmHg 62%
    18:00 +16°C° 0.1 mm 3 m/s 766 mmHg 65%
    19:00 +14°C° 0.1 mm 3 m/s 766 mmHg 69%
    20:00 +13°C° 0.1 mm 3 m/s 767 mmHg 72%
    21:00 +14°C° 0 mm 2 m/s 767 mmHg 73%
    22:00 +14°C° 0 mm 2 m/s 768 mmHg 74%
    23:00 +14°C° 0 mm 1 m/s 768 mmHg 74%

    22 Martie, Vineri

    Timp Temperatura Precipitaţii Vânt Presiune Umiditate
    00:00 +14°C° 0.1 mm 1 m/s 768 mmHg 75%
    01:00 +14°C° 0.1 mm 1 m/s 768 mmHg 76%
    02:00 +14°C° 0.1 mm 1 m/s 768 mmHg 76%
    03:00 +13°C° 0 mm 1 m/s 768 mmHg 77%
    04:00 +13°C° 0 mm 1 m/s 768 mmHg 77%
    05:00 +13°C° 0 mm 1 m/s 768 mmHg 77%
    06:00 +13°C° 0 mm 1 m/s 769 mmHg 76%
    07:00 +13°C° 0 mm 1 m/s 769 mmHg 75%
    08:00 +13°C° 0 mm 1 m/s 769 mmHg 74%
    09:00 +14°C° 0 mm 1 m/s 769 mmHg 72%
    10:00 +14°C° 0 mm 1 m/s 769 mmHg 70%
    11:00 +14°C° 0 mm 2 m/s 768 mmHg 68%
    12:00 +15°C° 0 mm 2 m/s 768 mmHg 67%
    13:00 +15°C° 0 mm 2 m/s 767 mmHg 66%
    14:00 +16°C° 0 mm 3 m/s 767 mmHg 64%
    15:00 +16°C° 0 mm 3 m/s 767 mmHg 64%
    16:00 +16°C° 0 mm 3 m/s 766 mmHg 64%
    17:00 +16°C° 0 mm 3 m/s 766 mmHg 64%
    18:00 +15°C° 0 mm 2 m/s 766 mmHg 68%
    19:00 +14°C° 0 mm 2 m/s 767 mmHg 71%
    20:00 +13°C° 0 mm 1 m/s 767 mmHg 75%
    21:00 +12°C° 0 mm 1 m/s 767 mmHg 76%
    22:00 +12°C° 0 mm 1 m/s 767 mmHg 77%
    23:00 +11°C° 0 mm 0 m/s 768 mmHg 78%

    23 Martie, Sâmbătă

    Timp Temperatura Precipitaţii Vânt Presiune Umiditate
    00:00 +11°C° 0 mm 0 m/s 768 mmHg 79%
    01:00 +10°C° 0 mm 0 m/s 768 mmHg 80%
    02:00 +11°C° 0 mm 1 m/s 768 mmHg 81%
    03:00 +11°C° 0 mm 1 m/s 768 mmHg 82%
    04:00 +11°C° 0 mm 1 m/s 768 mmHg 83%
    05:00 +10°C° 0 mm 1 m/s 768 mmHg 84%
    06:00 +11°C° 0 mm 1 m/s 768 mmHg 82%
    07:00 +12°C° 0 mm 1 m/s 768 mmHg 80%
    08:00 +12°C° 0 mm 1 m/s 768 mmHg 78%
    09:00 +14°C° 0 mm 1 m/s 768 mmHg 72%
    10:00 +15°C° 0 mm 1 m/s 767 mmHg 66%
    11:00 +18°C° 0 mm 1 m/s 767 mmHg 60%
    12:00 +18°C° 0 mm 1 m/s 767 mmHg 58%
    13:00 +19°C° 0 mm 1 m/s 766 mmHg 56%
    14:00 +20°C° 0 mm 1 m/s 766 mmHg 54%
    15:00 +18°C° 0 mm 2 m/s 765 mmHg 55%
    16:00 +18°C° 0 mm 2 m/s 765 mmHg 55%
    17:00 +18°C° 0 mm 3 m/s 765 mmHg 56%
    18:00 +17°C° 0 mm 2 m/s 765 mmHg 61%
    19:00 +15°C° 0 mm 1 m/s 765 mmHg 66%
    20:00 +14°C° 0 mm 1 m/s 766 mmHg 71%
    21:00 +13°C° 0 mm 1 m/s 766 mmHg 72%
    22:00 +12°C° 0 mm 0 m/s 766 mmHg 73%
    23:00 +12°C° 0 mm 0 m/s 766 mmHg 73%

    24 Martie, Duminică

    Timp Temperatura Precipitaţii Vânt Presiune Umiditate
    00:00 +11°C° 0 mm 0 m/s 766 mmHg 74%
    01:00 +12°C° 0 mm 1 m/s 766 mmHg 74%
    02:00 +12°C° 0 mm 1 m/s 766 mmHg 75%
    03:00 +12°C° 0 mm 1 m/s 766 mmHg 75%
    04:00 +12°C° 0 mm 1 m/s 765 mmHg 76%
    05:00 +11°C° 0 mm 1 m/s 765 mmHg 77%
    06:00 +12°C° 0 mm 1 m/s 765 mmHg 74%
    07:00 +13°C° 0 mm 1 m/s 765 mmHg 71%
    08:00 +14°C° 0 mm 1 m/s 765 mmHg 68%
    09:00 +15°C° 0 mm 1 m/s 765 mmHg 61%
    10:00 +18°C° 0 mm 1 m/s 764 mmHg 54%
    11:00 +18°C° 0 mm 0 m/s 764 mmHg 48%
    12:00 +20°C° 0 mm 1 m/s 763 mmHg 47%
    13:00 +20°C° 0 mm 2 m/s 763 mmHg 45%
    14:00 +21°C° 0 mm 2 m/s 762 mmHg 44%
    15:00 +20°C° 0 mm 2 m/s 762 mmHg 45%
    16:00 +20°C° 0 mm 2 m/s 761 mmHg 47%
    17:00 +20°C° 0 mm 2 m/s 760 mmHg 48%
    18:00 +18°C° 0 mm 2 m/s 760 mmHg 53%
    19:00 +18°C° 0 mm 1 m/s 760 mmHg 59%
    20:00 +15°C° 0 mm 1 m/s 760 mmHg 64%
    21:00 +15°C° 0 mm 1 m/s 760 mmHg 65%
    22:00 +14°C° 0 mm 1 m/s 760 mmHg 66%
    23:00 +13°C° 0 mm 0 m/s 760 mmHg 67%
    Arată mai mult